TIANMU-1 17

Last updated on Sun Oct 06 2024 00:02:18 GMT+0000 (Coordinated Universal Time)

1 58702U 24004C 24279.54229352 .00017939 00000+0 90030-3 0 9991 2 58702 97.4605 98.7518 0008095 37.9401 322.2402 15.17337812 41489
UTC large
Height (km)
Speed (km/s)
/
Latitude / Longitude
Inclination (degrees)
Orbital Period (minutes)
Azimuth
Elevation
Range (km)
Doppler Factor

Next 0 passes for location: London (51.5072 / 0.1276)

Sorry there are no passes over London.